Wind_Speed
8 8 9 10 12 14 15 15 15 17 18 18 19 20 20 20 21 21 22 24 25 26 27 27 27 27 27 27 27 27 28 29 30 30 30 31 31 32 32 32 33 33 33
8 9 10 11 13 14 14 15 16 17 18 19 20 20 21 22 23 24 25 26 27 29 29 29 29 29 30 30 30 30 31 32 33 33 34 34 35 35 35 36 36 36 36
10 11 11 11 13 13 14 15 16 17 18 19 20 20 21 21 23 25 27 27 28 30 30 31 32 33 34 34 34 35 35 36 37 37 38 38 38 39 39 39 39 39 39
12 13 13 14 15 15 15 15 16 17 18 18 19 19 20 21 23 24 26 28 29 31 32 34 35 36 37 38 38 38 39 40 40 41 42 42 42 43 43 43 44 44 44
17 16 15 16 17 17 17 18 18 17 18 19 19 20 21 22 23 25 26 28 29 31 33 35 36 38 39 40 41 42 42 43 44 45 46 46 47 47 48 49 49 49 49
21 20 19 20 20 20 21 21 21 20 20 20 21 21 22 23 24 26 28 30 31 31 32 33 34 37 39 41 42 43 44 46 47 48 49 51 51 52 53 54 55 55 55
25 24 24 23 24 23 23 23 23 23 22 23 23 24 25 25 26 27 29 30 32 33 33 34 35 37 39 41 43 45 45 47 49 51 52 54 56 57 58 59 60 61 62
29 29 28 27 27 26 26 26 26 26 26 26 26 27 27 28 29 29 30 31 33 34 36 36 37 39 41 42 44 46 49 51 52 54 56 58 60 62 63 65 66 67 68
32 32 32 32 30 29 29 29 29 30 29 29 29 30 31 32 33 33 34 35 36 37 38 40 42 44 45 46 47 50 52 54 56 59 61 63 65 67 69 71 72 73 74
35 35 35 35 33 32 31 31 31 32 32 32 33 34 35 35 36 37 39 40 41 42 43 45 47 49 50 52 53 55 58 60 62 64 67 69 71 73 74 75 76 77 77
37 37 37 37 36 35 34 33 33 34 35 36 37 38 39 40 41 42 44 45 46 47 49 50 52 54 55 58 60 62 64 66 68 70 72 74 75 76 76 77 78 78 78
39 39 39 39 38 37 36 36 37 38 38 39 41 42 43 45 46 47 48 49 50 52 54 55 57 59 60 62 65 67 69 71 72 74 75 76 76 76 76 77 77 77 77
40 40 41 40 39 38 39 39 40 41 42 44 45 46 48 49 50 51 52 52 54 55 57 60 62 63 65 67 69 70 72 73 74 74 75 75 75 75 75 74 74 74 74
40 41 41 41 40 40 41 42 44 45 46 48 49 50 51 52 53 54 55 55 56 58 60 62 65 66 68 69 70 71 72 73 74 74 74 74 73 72 72 71 71 70 70
43 43 43 43 43 44 45 46 48 50 51 52 53 54 55 55 56 57 58 58 59 60 61 64 66 68 68 69 69 70 71 71 71 71 71 70 70 70 69 69 68 67 66
46 46 47 48 47 49 51 52 53 54 54 55 56 56 57 58 59 59 60 60 61 62 63 64 66 66 66 67 67 68 68 68 67 67 66 66 66 66 65 63 62 61 60
49 50 51 53 54 55 56 57 57 57 58 59 60 60 60 60 60 60 60 61 62 63 63 63 64 64 64 64 64 64 64 63 62 62 62 61 60 59 58 57 55 54 53
54 56 57 58 59 59 60 60 61 61 61 62 62 61 61 61 60 61 61 62 62 63 62 61 61 61 62 62 61 60 60 59 58 57 56 54 52 50 49 48 47 46 46
59 60 61 62 62 62 63 63 63 63 62 62 62 61 61 60 61 61 61 61 61 60 60 58 58 58 58 57 56 55 55 53 51 49 47 46 45 45 45 44 43 42 42
61 62 63 62 63 64 63 62 61 61 60 59 59 59 59 59 59 60 59 59 58 58 56 55 54 53 52 52 51 48 45 44 43 43 42 41 41 41 41 40 39 39 39
59 58 58 57 57 58 58 58 58 58 58 57 58 58 58 58 58 58 57 56 54 53 52 50 49 47 47 46 43 40 38 37 38 38 37 38 38 37 37 36 34 35 35
53 53 53 53 54 54 55 55 55 55 55 56 56 56 57 57 56 54 52 51 49 48 46 44 42 41 39 36 34 34 34 33 32 33 34 34 34 34 33 33 32 32 32
49 50 50 51 52 52 52 53 53 54 54 54 54 53 52 51 49 48 46 45 44 41 39 37 35 32 30 29 29 30 30 31 31 30 30 31 32 32 31 30 30 30 30
47 48 49 50 50 51 52 51 51 51 50 49 48 47 46 44 43 41 40 38 37 35 33 30 27 25 24 25 26 26 26 27 28 29 28 28 29 29 29 28 27 26 26
46 46 47 47 47 47 47 47 46 45 45 44 43 41 40 38 36 34 32 30 29 27 25 23 21 20 20 21 22 23 24 25 26 27 27 27 26 26 26 26 24 22 21
43 43 43 43 43 42 42 42 41 40 39 38 36 33 32 30 28 26 24 22 21 20 18 17 17 17 18 20 21 22 23 23 24 24 24 24 24 23 22 23 22 20 18
Wind_Direction
352 352 348 345 340 335 332 328 327 324 318 308 299 293 290 287 281 278 277 275 274 273 271 271 272 272 271 271 272 273 272 272 272 271 271 271 270 270 270 269 268 268 267
340 338 335 337 338 337 336 332 329 326 321 314 307 298 290 287 282 277 275 274 274 274 274 273 271 271 271 271 271 272 272 272 272 272 271 271 271 271 270 270 270 269 268
330 329 328 333 336 333 329 325 322 320 320 317 312 308 298 293 287 282 278 275 274 274 274 273 272 272 272 271 271 271 271 272 272 272 271 271 271 272 271 271 270 269 269
316 320 324 326 328 324 321 319 317 315 316 315 310 307 303 297 292 288 283 280 277 275 274 273 272 272 272 272 272 272 272 273 273 273 272 272 272 272 272 271 271 270 269
305 312 318 320 321 318 315 315 313 313 313 312 310 308 304 300 296 291 287 284 283 281 278 276 274 274 272 272 272 273 273 274 274 274 274 273 273 272 272 272 271 271 271
299 303 309 310 311 312 310 309 308 307 308 308 307 306 305 301 298 296 293 289 287 284 281 280 278 278 276 274 274 274 275 275 275 274 273 272 272 272 272 271 272 272 272
295 296 300 301 302 304 304 302 301 301 301 301 302 301 300 298 297 298 297 293 289 286 283 280 279 279 279 278 276 276 276 275 275 275 274 273 272 272 272 272 272 272 272
291 290 292 293 295 296 298 296 295 295 294 295 296 296 296 295 295 295 295 294 291 289 287 285 283 282 280 279 278 276 276 276 275 275 274 274 273 273 273 273 272 272 272
288 289 289 290 290 290 292 292 292 292 291 292 292 293 293 293 292 292 292 291 290 288 287 286 285 284 283 281 280 279 278 277 276 275 275 275 274 273 274 274 273 272 272
286 287 287 288 288 289 290 291 291 290 290 290 290 290 290 290 290 290 289 289 288 287 286 285 285 284 283 282 281 280 278 278 277 276 275 275 275 275 275 275 274 274 273
285 284 285 288 289 288 288 289 289 289 289 290 289 289 289 288 289 289 289 288 287 286 285 284 283 283 283 282 281 280 279 279 278 278 278 278 278 278 277 277 276 275 275
285 283 285 288 287 287 287 288 289 289 289 289 288 288 288 288 288 288 287 287 286 286 285 284 283 283 282 281 281 280 280 280 280 280 280 281 281 280 280 279 278 277 276
284 284 287 287 287 287 288 289 290 290 289 289 288 288 288 288 288 287 287 286 285 285 285 284 284 284 283 283 283 282 282 282 282 283 283 283 283 283 282 281 280 279 277
284 286 287 289 290 289 288 289 289 289 288 288 288 288 288 288 288 287 286 286 285 285 285 285 285 285 285 284 284 285 285 285 286 286 286 285 285 284 283 282 281 280 279
285 286 287 288 289 289 288 288 288 288 288 288 288 288 288 289 288 288 287 286 286 285 285 286 286 286 286 286 286 287 288 288 288 288 287 287 286 285 284 283 282 280 279
285 286 287 288 289 289 288 288 288 288 288 288 288 289 289 289 289 289 288 288 288 287 286 286 286 287 287 288 288 289 290 290 290 289 289 288 287 287 285 284 282 280 278
285 286 287 288 288 288 288 288 288 288 288 288 288 289 290 290 290 289 289 289 289 288 288 288 289 289 289 290 291 292 292 292 291 291 290 290 289 288 287 285 283 281 279
285 286 287 287 287 287 288 288 288 288 288 288 289 289 289 290 289 289 289 289 289 289 290 290 290 291 292 292 292 293 293 293 293 293 292 292 291 290 289 287 284 282 279
284 285 285 285 286 287 287 287 287 287 288 289 289 289 289 289 289 289 289 289 290 291 292 292 292 293 293 293 294 294 295 295 295 295 295 293 292 291 289 287 285 282 280
283 284 284 284 284 285 286 286 287 287 288 289 289 289 288 288 288 288 289 289 290 291 292 293 293 294 294 295 296 297 297 298 299 299 298 297 296 294 292 289 286 283 281
282 283 284 285 286 286 286 286 287 288 289 289 288 288 288 288 288 288 288 289 290 291 292 293 294 295 296 297 299 300 301 302 302 303 303 301 300 298 296 293 289 287 284
284 286 286 287 288 288 288 288 288 288 288 288 287 287 287 287 288 288 289 290 291 292 292 293 295 297 298 300 302 304 306 307 306 307 308 306 305 303 300 296 293 290 287
291 290 289 289 289 289 288 287 287 287 287 287 288 288 288 288 288 289 290 290 291 291 291 294 296 298 301 304 307 310 312 313 314 314 313 311 309 307 304 301 296 292 289
291 290 289 289 289 288 288 287 288 287 287 287 288 288 288 289 289 290 290 290 291 292 294 297 301 304 306 311 315 318 320 321 321 322 322 320 316 312 308 306 303 298 292
291 290 290 289 289 289 288 288 288 288 288 288 288 287 287 288 288 288 289 290 291 294 297 302 306 310 315 320 324 327 328 329 329 328 328 327 324 321 318 315 313 308 299
293 292 290 290 290 289 289 290 290 290 290 290 288 287 287 287 287 287 288 290 293 298 304 310 316 321 326 330 332 334 336 336 337 336 335 334 332 331 327 325 324 320 311
Height
5894 5892 5891 5889 5887 5885 5882 5880 5877 5875 5873 5870 5869 5868 5868 5867 5867 5867 5866 5865 5865 5864 5863 5862 5862 5861 5860 5860 5859 5858 5857 5857 5856 5855 5854 5854 5853 5852 5852 5851 5851 5851 5851
5891 5890 5888 5886 5884 5882 5879 5876 5874 5872 5869 5867 5865 5863 5863 5862 5861 5861 5860 5859 5858 5857 5856 5855 5855 5854 5853 5853 5852 5851 5850 5849 5849 5848 5847 5846 5845 5845 5844 5843 5843 5842 5842
5888 5886 5885 5883 5881 5879 5876 5874 5872 5869 5867 5864 5861 5859 5857 5856 5856 5854 5853 5852 5851 5851 5850 5849 5848 5846 5846 5845 5844 5843 5842 5841 5840 5840 5838 5837 5837 5836 5835 5835 5834 5833 5833
5883 5882 5880 5879 5877 5875 5873 5871 5869 5866 5864 5861 5858 5855 5853 5851 5850 5848 5847 5846 5844 5843 5842 5841 5840 5839 5838 5837 5836 5834 5833 5832 5831 5830 5829 5828 5827 5826 5825 5824 5823 5823 5822
5878 5877 5875 5873 5872 5870 5868 5866 5864 5862 5860 5857 5854 5852 5849 5847 5844 5842 5840 5839 5838 5836 5835 5833 5832 5830 5829 5827 5826 5825 5824 5823 5822 5820 5819 5818 5817 5816 5814 5813 5812 5811 5811
5873 5871 5870 5868 5867 5865 5863 5861 5859 5857 5855 5853 5850 5848 5845 5843 5840 5837 5834 5832 5830 5829 5827 5826 5824 5822 5820 5818 5817 5815 5813 5812 5811 5809 5808 5806 5805 5803 5802 5800 5799 5798 5798
5866 5865 5864 5863 5861 5860 5858 5856 5854 5852 5850 5848 5846 5843 5841 5838 5835 5832 5829 5826 5823 5821 5819 5817 5815 5813 5811 5809 5807 5805 5803 5801 5799 5797 5795 5793 5792 5790 5788 5786 5785 5784 5783
5859 5858 5857 5856 5855 5853 5852 5850 5849 5847 5844 5842 5840 5838 5835 5833 5830 5827 5823 5820 5817 5814 5811 5808 5806 5804 5801 5798 5796 5794 5792 5789 5787 5784 5782 5779 5777 5774 5772 5770 5769 5768 5766
5851 5850 5849 5848 5847 5846 5844 5843 5841 5840 5837 5835 5833 5831 5829 5826 5823 5820 5816 5813 5809 5806 5803 5799 5796 5793 5790 5788 5785 5782 5779 5776 5773 5770 5767 5764 5761 5758 5755 5753 5751 5749 5748
5844 5842 5841 5840 5839 5837 5836 5835 5833 5831 5829 5827 5825 5823 5820 5818 5815 5812 5808 5804 5800 5796 5793 5789 5786 5782 5778 5775 5771 5768 5765 5761 5758 5754 5750 5746 5743 5740 5737 5734 5731 5729 5727
5835 5834 5832 5831 5830 5829 5827 5826 5824 5823 5820 5818 5816 5813 5811 5808 5805 5802 5798 5794 5790 5786 5782 5778 5774 5770 5766 5761 5757 5753 5749 5744 5740 5736 5731 5727 5724 5720 5717 5714 5711 5708 5706
5827 5825 5823 5822 5821 5819 5818 5816 5815 5813 5811 5808 5805 5803 5800 5797 5794 5791 5787 5783 5778 5773 5768 5764 5760 5755 5751 5746 5741 5736 5731 5726 5721 5717 5712 5707 5703 5699 5696 5692 5689 5686 5684
5818 5817 5815 5812 5811 5810 5808 5806 5804 5802 5799 5797 5794 5791 5788 5785 5781 5778 5774 5770 5766 5760 5755 5749 5744 5739 5734 5729 5723 5718 5713 5708 5702 5697 5692 5687 5683 5678 5674 5670 5667 5663 5661
5808 5807 5805 5803 5801 5799 5797 5795 5793 5790 5787 5784 5781 5778 5774 5771 5767 5764 5760 5756 5752 5747 5740 5734 5728 5722 5717 5711 5705 5700 5694 5688 5683 5678 5672 5667 5662 5657 5653 5649 5645 5641 5638
5799 5797 5795 5793 5791 5789 5786 5783 5781 5778 5774 5771 5768 5764 5760 5756 5752 5748 5744 5740 5737 5732 5726 5719 5712 5705 5698 5693 5687 5681 5676 5670 5664 5657 5652 5646 5641 5636 5632 5628 5624 5620 5617
5789 5787 5784 5782 5780 5777 5774 5771 5768 5764 5761 5757 5754 5749 5745 5741 5737 5732 5728 5723 5719 5715 5710 5704 5696 5689 5682 5676 5670 5664 5658 5652 5645 5639 5633 5627 5622 5616 5612 5607 5604 5600 5597
5778 5775 5773 5770 5767 5764 5760 5757 5754 5750 5746 5742 5738 5734 5730 5726 5721 5716 5711 5706 5702 5697 5693 5687 5679 5672 5666 5660 5653 5647 5640 5634 5628 5621 5615 5609 5603 5598 5594 5589 5585 5582 5579
5766 5763 5760 5757 5753 5749 5746 5742 5739 5735 5731 5727 5723 5719 5714 5710 5705 5700 5695 5690 5685 5680 5676 5672 5664 5657 5650 5644 5638 5631 5624 5618 5612 5605 5599 5593 5587 5582 5578 5573 5569 5566 5563
5754 5750 5747 5743 5739 5735 5731 5727 5723 5719 5715 5711 5707 5703 5698 5693 5689 5684 5679 5674 5669 5664 5660 5656 5650 5643 5636 5629 5624 5617 5611 5604 5597 5591 5585 5579 5574 5569 5564 5560 5556 5553 5550
5741 5737 5732 5728 5724 5720 5716 5712 5708 5703 5699 5695 5690 5686 5682 5677 5672 5668 5663 5659 5654 5650 5645 5640 5635 5629 5623 5616 5611 5605 5599 5592 5585 5579 5573 5567 5562 5556 5551 5547 5543 5540 5537
5727 5723 5718 5713 5709 5705 5701 5697 5692 5688 5683 5679 5674 5670 5666 5661 5656 5652 5648 5644 5640 5636 5632 5627 5622 5617 5611 5605 5599 5594 5588 5582 5575 5569 5563 5556 5551 5545 5540 5535 5531 5528 5525
5712 5708 5704 5699 5695 5690 5686 5681 5677 5672 5667 5663 5658 5654 5650 5645 5641 5637 5633 5630 5627 5624 5621 5616 5612 5607 5602 5596 5591 5585 5579 5574 5568 5562 5555 5548 5541 5535 5530 5525 5521 5518 5515
5698 5694 5689 5684 5680 5675 5670 5665 5661 5656 5652 5647 5643 5639 5634 5630 5627 5623 5620 5617 5615 5612 5610 5607 5603 5598 5594 5589 5584 5579 5572 5566 5560 5553 5547 5540 5533 5527 5522 5517 5512 5509 5505
5684 5679 5674 5669 5665 5660 5655 5650 5645 5641 5636 5632 5628 5624 5621 5618 5615 5612 5609 5607 5605 5603 5600 5598 5595 5591 5587 5583 5578 5572 5566 5560 5553 5546 5540 5534 5527 5520 5514 5509 5504 5500 5497
5670 5665 5660 5655 5650 5645 5640 5636 5631 5626 5622 5618 5615 5612 5609 5606 5604 5602 5601 5599 5597 5596 5594 5591 5589 5585 5582 5577 5572 5567 5561 5555 5549 5542 5535 5529 5522 5515 5508 5502 5498 5493 5489
5657 5652 5647 5642 5637 5632 5627 5623 5619 5614 5610 5606 5603 5601 5599 5598 5596 5595 5594 5593 5592 5590 5588 5586 5584 5581 5577 5573 5568 5563 5558 5552 5545 5539 5532 5525 5518 5511 5505 5498 5493 5488 5484